This demonstration page uses our WeatherBlox Daily Observations layout. Learn more.

Left ArrowRight Arrow

31.31129, -92.44514

Hourly Observations for February 26, 2023

Temp ( °F °C ) Dew Point ( °F °C ) Humidity (%) Winds ( mph kmh ) Pressure ( in mb ) Visibility ( mi km ) Precip ( " mm )
12:07 am 00:07 Mostly Cloudy 62 16.7 56 13.3 80 80 Calm 30.16 1021 9 14 0.00 0.00
12:38 am 00:38 Cloudy 62 16.7 56 13.3 80 80 Calm 30.15 1021 10 16 0.00 0.00
12:53 am 00:53 Cloudy 62 16.7 56 13.3 80 80 E 3 6 30.16 1021 10 16 0.00 0.00
1:53 am 01:53 Cloudy 63 17.2 57 13.9 81 81 ESE 3 6 30.14 1021 10 16 0.00 0.00
2:53 am 02:53 Cloudy 63 17.2 57 13.9 81 81 NNE 5 7 30.13 1020 10 16 0.00 0.00
3:39 am 03:39 Cloudy 63 17.2 57 13.9 81 81 ESE 6 9 30.10 1019 10 16 0.00 0.00
3:53 am 03:53 Cloudy 63 17.2 57 13.9 81 81 ESE 7 11 30.11 1020 10 16 0.00 0.00
4:53 am 04:53 Cloudy 63 17.2 58 14.4 84 84 NE 6 9 30.11 1020 10 16 0.00 0.00
5:53 am 05:53 Cloudy 63 17.2 57 13.9 81 81 NE 3 6 30.11 1020 10 16 0.00 0.00
6:53 am 06:53 Cloudy 63 17.2 58 14.4 84 84 Calm 30.11 1020 10 16 0.00 0.00
7:53 am 07:53 Cloudy with Haze 64 17.8 59 15 84 84 E 3 6 30.11 1020 6 10 0.00 0.00
8:53 am 08:53 Cloudy with Mist and Fog 65 18.3 61 16.1 87 87 ENE 3 6 30.11 1020 5 8 0.00 0.00
9:51 am 09:51 Cloudy 68 20 63 17 83 83 ENE 3 6 30.10 1019 8 13 0.00 0.00
9:53 am 09:53 Cloudy 68 20 63 17.2 84 84 ENE 3 6 30.11 1020 8 13 0.00 0.00
10:07 am 10:07 Cloudy 70 21.1 63 17.2 78 78 Calm 30.10 1019 8 13 0.00 0.00
10:15 am 10:15 Cloudy 71 21.7 64 17.8 79 79 N 3 6 30.10 1019 8 13 0.00 0.00
10:53 am 10:53 Cloudy 72 22.2 65 18.3 79 79 Calm 30.10 1019 8 13 0.00 0.00
11:40 am 11:40 Mostly Cloudy 75 23.9 66 18.9 74 74 WSW 8 13 30.08 1019 9 14 0.00 0.00
11:53 am 11:53 Mostly Cloudy 77 25 66 18.9 69 69 SSW 10 17 30.08 1019 10 16 0.00 0.00
12:53 pm 12:53 Partly Cloudy 79 26.1 65 18.3 62 62 SSW 10 17 30.02 1017 10 16 0.00 0.00
1:53 pm 13:53 Mostly Cloudy 81 27.2 65 18.3 58 58 S 13 20 29.97 1015 10 16 0.00 0.00
2:53 pm 14:53 Partly Cloudy 80 26.7 62 16.7 54 54 S 16 26 29.94 1014 10 16 0.00 0.00
3:53 pm 15:53 Mostly Sunny 80 26.7 61 16.1 52 52 SSW 16 26 29.91 1013 10 16 0.00 0.00
4:53 pm 16:53 Mostly Sunny 79 26.1 61 16.1 54 54 S 15 24 29.90 1013 10 16 0.00 0.00
5:53 pm 17:53 Mostly Sunny 75 23.9 62 16.7 64 64 S 17 28 29.89 1012 10 16 0.00 0.00
6:53 pm 18:53 Clear 72 22.2 62 16.7 71 71 S 9 15 29.89 1012 10 16 0.00 0.00
7:53 pm 19:53 Clear 70 21.1 61 16.1 73 73 S 10 17 29.90 1013 10 16 0.00 0.00
8:53 pm 20:53 Clear 68 20 62 16.7 81 81 S 9 15 29.88 1012 10 16 0.00 0.00
9:53 pm 21:53 Clear 68 20 62 16.7 81 81 S 12 19 29.85 1011 10 16 0.00 0.00
10:39 pm 22:39 Mostly Cloudy 68 20 63 17.2 84 84 S 14 22 29.84 1010 10 16 0.00 0.00
10:53 pm 22:53 Mostly Cloudy 68 20 63 17.2 84 84 S 9 15 29.84 1011 10 16 0.00 0.00
11:53 pm 23:53 Cloudy 68 20 64 17.8 87 87 S 12 19 29.80 1009 10 16 0.00 0.00

Powered by AerisWeather